Location: Caltech
(34.1382°N, 118.1253°W)
Time: 23:44:35
(UTC-08:00)

OPAL - Visible Passes

Search period start: 25 February 2017 00:00
Search period end: 07 March 2017 00:00
Orbit: 744 x 795 km, 100.2° (Epoch: 25 February)

Date Brightness Start Highest point End Pass type
(mag) Time Alt. Az. Time Alt. Az. Time Alt. Az.
25 Feb 10.3 03:13:59 10° ENE 03:16:38 14° E 03:19:16 10° SE visible
25 Feb 7.5 04:50:43 10° N 04:55:48 56° WNW 04:59:53 15° SW visible
26 Feb 7.9 04:15:16 10° NNE 04:20:24 62° ESE 04:24:21 17° S visible
26 Feb 9.2 05:56:01 10° NNW 05:58:40 14° WNW 06:01:18 10° W visible
27 Feb 9.4 03:40:31 10° NE 03:44:49 26° E 03:48:50 11° SSE visible
27 Feb 8.3 05:19:05 10° N 05:23:36 31° WNW 05:28:03 10° SW visible
28 Feb 10.5 03:07:58 10° E 03:09:03 11° E 03:10:07 10° ESE visible
28 Feb 7.4 04:43:11 10° N 04:48:21 71° WNW 04:53:24 10° SSW visible
01 Mar 8.3 04:07:53 10° NNE 04:12:54 49° ESE 04:17:47 10° S visible
01 Mar 9.0 05:47:58 10° NNW 05:51:18 18° WNW 05:54:37 10° WSW visible
02 Mar 9.8 03:33:26 10° NE 03:37:16 21° E 03:41:01 10° SE visible
02 Mar 8.0 05:11:25 10° N 05:16:11 38° WNW 05:20:52 10° SW visible
03 Mar 7.4 04:35:42 10° NNE 04:40:52 89° WNW 04:45:56 10° SSW visible
04 Mar 8.8 04:00:35 10° NNE 04:05:22 38° E 04:10:04 10° SSE visible
04 Mar 8.7 05:40:05 10° NNW 05:43:56 22° WNW 05:47:43 10° WSW visible
05 Mar 10.1 03:26:31 10° ENE 03:29:41 16° E 03:32:48 10° SE visible
05 Mar 7.7 05:03:49 10° N 05:08:45 48° WNW 05:13:36 10° SW visible
06 Mar 7.7 04:28:14 10° NNE 04:33:23 73° ESE 04:38:25 10° S visible
